Lid_Strength_Index
4 3 2 2 2 2 3 2 2 2 2 2 2 2 2 2 2 5 6 4 3 -1 1 5 6 6 6 6 5 5 7 8 8 8 7 5 6 4 3 5 4 4 4 3 2
4 4 2 2 2 2 3 2 2 2 2 2 2 2 2 2 4 6 1 -1 -3 -1 6 6 7 7 7 6 6 6 7 8 6 6 6 5 6 5 5 5 5 5 3 2 2
4 4 3 2 2 2 3 2 2 2 2 2 2 2 2 2 6 5 -4 -3 -2 -0 6 6 6 7 7 7 7 7 8 7 7 5 5 5 5 4 6 7 5 5 4 3 3
4 4 4 3 2 2 3 2 3 2 2 2 2 2 2 3 8 4 -4 -3 -2 3 6 7 7 8 7 8 7 8 7 7 6 5 5 6 4 5 5 5 3 3 3 3 3
5 5 4 3 3 3 3 3 3 3 3 3 2 2 4 8 7 1 -3 -2 4 6 6 7 7 6 7 7 8 8 7 7 5 5 5 4 5 5 5 3 3 3 3 3 3
5 5 5 4 4 4 3 3 3 3 3 3 2 2 7 8 4 1 3 6 5 6 7 6 5 5 6 7 7 7 7 5 5 5 5 6 6 5 5 3 4 4 4 3 3
5 6 6 4 5 5 4 3 4 3 3 2 2 3 8 6 3 2 4 6 6 6 7 5 5 6 6 7 6 6 6 6 5 5 6 5 7 6 4 4 5 5 4 4 3
4 6 6 5 5 5 5 3 3 3 2 2 2 5 8 4 4 3 3 5 6 6 7 5 5 5 6 6 6 7 6 8 6 5 6 5 9 6 4 5 6 5 5 4 4
4 5 5 5 5 5 5 4 3 3 2 2 5 6 7 2 4 3 3 4 5 6 5 5 5 6 5 7 7 7 9 8 8 6 6 6 9 6 5 5 6 5 5 5 4
4 5 5 5 5 5 6 6 3 3 3 2 4 7 5 5 3 4 4 4 5 5 5 5 5 6 6 6 10 9 9 9 9 7 6 8 8 6 5 5 6 5 5 5 4
5 5 5 5 6 6 7 9 7 6 7 7 6 6 6 4 4 5 5 5 5 5 6 6 6 8 8 8 7 8 8 9 8 6 7 8 8 7 6 6 6 6 6 5 5
5 5 5 5 6 6 6 8 8 7 8 7 7 7 5 4 6 5 4 5 5 7 6 6 8 7 7 7 7 7 8 9 7 6 7 8 8 7 6 7 6 6 6 5 4
5 6 5 5 4 7 9 8 7 7 8 6 6 6 5 4 6 6 5 6 6 7 7 8 7 7 7 7 7 7 9 9 9 8 7 7 9 8 6 6 6 5 5 4 4
5 6 5 5 8 9 9 7 7 6 7 7 5 5 5 5 6 5 5 5 6 7 7 7 6 7 6 7 7 9 7 7 8 9 11 8 13 9 8 7 7 6 6 5 5
5 6 5 6 8 8 7 6 6 4 13 7 5 3 5 5 5 5 4 5 7 7 6 8 7 7 7 8 7 8 7 7 8 9 10 10 11 10 8 9 8 7 6 5 4
5 6 5 6 7 6 6 6 4 8 13 7 5 6 6 6 6 5 5 4 5 6 6 7 6 6 6 6 6 6 7 8 8 9 12 11 11 11 10 9 8 7 6 5 4
5 5 5 5 8 6 7 4 8 12 7 8 7 7 7 7 7 6 7 7 8 9 9 7 7 6 6 7 6 7 9 11 13 13 14 10 11 11 9 7 7 7 6 5 4
5 5 6 4 5 6 3 6 11 9 9 6 7 7 7 7 7 7 7 8 7 7 9 10 11 8 6 7 8 8 9 10 15 15 13 10 13 11 7 6 6 5 5 4 4
5 4 6 6 5 5 4 10 10 9 7 7 7 8 8 7 7 7 7 8 8 6 9 10 10 6 6 6 7 9 10 8 12 11 12 11 11 8 7 7 6 6 5 5 4
5 5 6 6 5 5 7 10 9 7 6 6 8 8 9 8 8 7 7 6 7 6 6 8 11 8 7 6 6 8 7 11 10 15 16 13 13 11 10 8 7 7 6 5 4
4 5 5 5 4 5 9 8 7 5 5 7 8 8 8 8 8 8 7 6 6 6 6 7 9 9 7 9 10 8 9 10 10 11 13 14 12 8 8 7 7 6 5 5 4
4 7 4 4 6 8 7 8 8 6 5 6 6 7 8 7 8 8 8 7 6 6 8 7 9 11 10 7 7 8 9 9 11 13 12 12 12 7 7 6 6 6 5 4 3
6 5 2 4 8 8 7 7 6 6 6 6 7 6 6 8 9 8 8 6 6 6 7 7 10 12 11 9 8 9 9 9 9 10 13 13 12 7 7 7 6 6 5 4 4
4 7 5 5 7 7 7 8 8 6 6 6 6 6 7 8 7 8 8 7 6 6 6 6 9 10 10 10 9 10 10 9 10 11 12 11 11 9 8 7 6 6 4 4 4
4 7 5 8 8 8 7 8 9 8 6 6 7 7 8 9 9 9 8 7 6 6 6 6 10 9 9 9 9 9 10 9 10 10 11 10 10 8 7 7 6 5 4 5 4
5 6 5 7 6 6 9 8 8 7 7 7 7 7 7 8 8 9 7 7 7 7 7 7 10 9 10 9 9 10 9 9 10 10 10 10 10 7 6 5 6 5 5 5 4
5 5 5 8 7 7 7 8 7 6 6 6 6 7 8 7 6 5 5 6 6 7 8 8 9 10 12 10 9 11 10 9 9 8 9 10 8 7 7 6 6 5 5 5 4